TimeCDT,TemperatureF,Dew PointF,Humidity,Sea Level PressureIn,VisibilityMPH,Wind Direction,Wind SpeedMPH,Gust SpeedMPH,PrecipitationIn,Events,Conditions,WindDirDegrees,DateUTC
12:53 AM,54.0,42.1,64,29.98,10.0,NW,4.6,-,N/A,,Clear,320,2013-11-02 05:53:00
1:53 AM,48.0,43.0,83,30.00,10.0,Calm,Calm,-,N/A,,Clear,0,2013-11-02 06:53:00
2:53 AM,48.0,43.0,83,30.00,10.0,Calm,Calm,-,N/A,,Clear,0,2013-11-02 07:53:00
3:53 AM,45.0,42.1,90,30.02,10.0,West,3.5,-,N/A,,Clear,280,2013-11-02 08:53:00
4:53 AM,44.1,42.1,93,30.03,10.0,WNW,3.5,-,N/A,,Clear,300,2013-11-02 09:53:00
5:53 AM,45.0,42.1,90,30.05,10.0,Calm,Calm,-,N/A,,Clear,0,2013-11-02 10:53:00
6:53 AM,44.1,41.0,89,30.07,10.0,Calm,Calm,-,N/A,,Clear,0,2013-11-02 11:53:00
7:53 AM,46.9,39.9,77,30.09,10.0,NW,5.8,-,N/A,,Clear,310,2013-11-02 12:53:00
8:53 AM,50.0,41.0,71,30.12,10.0,Variable,4.6,-,N/A,,Clear,0,2013-11-02 13:53:00
9:53 AM,53.1,39.0,59,30.14,10.0,NW,10.4,17.3,N/A,,Clear,320,2013-11-02 14:53:00
10:53 AM,55.0,37.9,53,30.17,10.0,NNW,8.1,20.7,N/A,,Clear,330,2013-11-02 15:53:00
11:53 AM,57.9,37.9,47,30.17,10.0,NW,9.2,23.0,N/A,,Clear,320,2013-11-02 16:53:00
12:53 PM,57.9,37.0,46,30.17,10.0,NW,10.4,19.6,N/A,,Clear,310,2013-11-02 17:53:00
1:53 PM,60.1,36.0,41,30.16,10.0,NW,10.4,18.4,N/A,,Partly Cloudy,320,2013-11-02 18:53:00
2:53 PM,60.1,36.0,41,30.14,10.0,NNW,11.5,19.6,N/A,,Clear,340,2013-11-02 19:53:00
3:53 PM,60.1,36.0,41,30.14,10.0,NNW,9.2,17.3,N/A,,Clear,340,2013-11-02 20:53:00
4:53 PM,59.0,36.0,42,30.16,10.0,Variable,5.8,-,N/A,,Clear,0,2013-11-02 21:53:00
5:53 PM,55.9,36.0,47,30.16,10.0,NNW,4.6,-,N/A,,Clear,330,2013-11-02 22:53:00
6:53 PM,48.9,37.9,66,30.18,10.0,Calm,Calm,-,N/A,,Clear,0,2013-11-02 23:53:00
7:53 PM,45.0,39.0,80,30.19,10.0,Calm,Calm,-,N/A,,Clear,0,2013-11-03 00:53:00
8:53 PM,42.1,39.9,92,30.21,10.0,Calm,Calm,-,N/A,,Clear,0,2013-11-03 01:53:00
9:53 PM,41.0,39.0,93,30.22,10.0,Calm,Calm,-,N/A,,Clear,0,2013-11-03 02:53:00
10:53 PM,39.0,37.9,96,30.23,10.0,Calm,Calm,-,N/A,,Clear,0,2013-11-03 03:53:00
11:53 PM,37.9,37.0,97,30.22,8.0,Calm,Calm,-,N/A,,Clear,0,2013-11-03 04:53:00